[[{"header":{"parameterUnit":"m.s-1","parameterCategory":1,"la1":30.2991,"la2":30.254,"lo1":-89.0895,"lo2":-89.0444,"dy":0.0017,"dx":0.0017,"nx":28,"ny":28,"refTime":"2024-11-29T03:00:00:Z","depth":0,"parameterNumber":2,"parameterNumberName":"U-component_of_WINDS"},"data":[0,0,0,0,0,0,0,0,0,0,0,0,0,0,0,0,0,0,0,0,0,0,0,0,0,0,0,0,0,0,0,0,0,0,0,0,0,0,0,0,0,0,0,0,0,0,0,0,0,0,0,0,0,0,0,0,0,0,-2.2486,-2.2487,0,-2.2585,-2.2586,-2.2587,-2.2541,-2.2538,-2.2536,-2.2533,-2.2635,-2.264,-2.2645,0,0,0,0,0,0,0,0,0,0,0,0,0,-2.2255,-2.2259,-2.2486,-2.2487,-2.2488,-2.2585,-2.2586,-2.2588,-2.2541,-2.2538,-2.2535,-2.2532,-2.2634,-2.264,-2.2646,0,0,0,0,0,0,0,0,0,0,0,0,0,-2.2355,-2.2261,-2.2486,-2.2477,-2.2477,-2.2585,-2.2586,-2.2588,-2.2542,-2.2538,-2.2534,-2.2531,-2.2632,-2.2639,-2.2646,-2.2769,0,0,-2.267,-2.2673,0,0,0,0,0,0,0,0,-2.2349,-2.2363,-2.2477,-2.2478,-2.2478,-2.2547,-2.2542,-2.2649,-2.2543,-2.2517,-2.2533,-2.2529,-2.2609,-2.2618,-2.2645,-2.2774,-2.2778,-2.267,-2.2675,-2.2678,-2.268,0,0,0,0,0,0,0,-2.2342,-2.2359,-2.2525,-2.2478,-2.2479,-2.2467,-2.2477,-2.2562,-2.2583,-2.2519,-2.2516,-2.2528,-2.2608,-2.2638,-2.2647,-2.278,-2.267,-2.2677,-2.2682,-2.2685,-2.3013,-2.3017,0,0,0,0,0,0,-2.2336,-2.2353,-2.2522,-2.2528,-2.2403,-2.2475,-2.2486,-2.2528,-2.2582,-2.2586,-2.2531,-2.2526,-2.2627,-2.2638,-2.265,-2.2798,-2.2678,-2.2685,-2.269,-2.3009,-2.3014,-2.3019,0,0,0,0,0,0,-2.2331,-2.2351,-2.2518,-2.244,-2.246,-2.2483,-2.2531,-2.2532,-2.2562,-2.2591,-2.2595,-2.2558,-2.2624,-2.264,-2.274,-2.2801,-2.2689,-2.2696,-2.3004,-2.3011,-2.3016,-2.3093,0,0,0,0,0,0,-2.2325,-2.235,-2.2397,-2.2441,-2.2465,-2.2606,-2.2535,-2.2537,-2.2575,-2.2568,-2.2617,-2.2621,-2.2622,-2.2729,-2.2747,-2.2809,-2.2702,-2.2999,-2.3007,-2.3014,-2.3085,-2.3101,-2.3115,0,0,0,0,0,-2.2317,-2.2415,-2.24,-2.242,-2.2524,-2.261,-2.2623,-2.2622,-2.258,-2.2628,-2.2646,-2.262,-2.279,-2.2739,-2.276,-2.2825,-2.2995,-2.3005,-2.3014,-2.3079,-2.3098,-2.3114,0,0,0,0,0,0,-2.2378,-2.2421,-2.2404,-2.252,-2.2562,-2.2602,-2.2662,-2.2643,-2.2698,-2.269,-2.2686,-2.2697,-2.2801,-2.2822,-2.2765,-2.2946,-2.2886,-2.29,-2.2928,-2.2947,-2.2962,-2.2955,-2.2708,0,0,0,0,0,-2.2405,-2.2471,-2.2504,-2.2603,-2.2625,-2.264,-2.2677,-2.2673,-2.2716,-2.2733,-2.2759,-2.2802,-2.2865,-2.2907,-2.2967,-2.3087,-2.3097,-2.3142,-2.3156,-2.3168,-2.3181,-2.3246,-2.3267,-2.3049,-2.3049,-2.3049,0,0,-2.2461,-2.2493,-2.2535,-2.2617,-2.2648,-2.2717,-2.2655,-2.273,-2.2781,-2.2745,-2.2841,-2.2861,-2.2908,-2.3019,-2.3069,-2.304,-2.3243,-2.318,-2.319,-2.3196,-2.3258,-2.3279,-2.3297,-2.3056,-2.3055,-2.3054,0,0,-2.26,-2.263,-2.2716,-2.2748,-2.2797,-2.2806,-2.2826,-2.2869,-2.2881,-2.2977,-2.2951,-2.3011,-2.312,-2.3154,-2.3186,-2.3336,-2.3313,-2.3355,-2.3433,-2.3497,-2.3514,-2.3529,-2.3583,-2.3602,-2.3367,-2.3367,-2.3367,0,-2.2664,-2.2767,-2.2762,-2.284,-2.2876,-2.2845,-2.2932,-2.2963,-2.3029,-2.3055,-2.3021,-2.3156,-2.3186,-2.3304,-2.3341,-2.3367,-2.339,-2.3351,-2.3511,-2.3527,-2.3541,-2.3592,-2.3612,-2.3372,-2.3371,-2.3371,-2.3371,0,-2.2844,-2.2915,-2.2978,-2.3042,-2.3085,-2.3167,-2.3174,-2.3218,-2.3209,-2.3222,-2.332,-2.3354,-2.3419,-2.3447,-2.3439,-2.3564,-2.3545,-2.3511,-2.3452,-2.3566,-2.3615,-2.3634,-2.3379,-2.3377,-2.3376,-2.3375,0,0,-2.3026,-2.3085,-2.3109,-2.3137,-2.3187,-2.3242,-2.3321,-2.3385,-2.3423,-2.3469,-2.3536,-2.3627,-2.3596,-2.3633,-2.3628,-2.3684,-2.38,-2.3643,-2.3644,-2.3672,-2.394,-2.3966,-2.3989,-2.3784,-2.3788,-2.3791,-2.3936,0,-2.3169,-2.3309,-2.3306,-2.3436,-2.3501,-2.3472,-2.3541,-2.3579,-2.3592,-2.3649,-2.3662,-2.3728,-2.3682,-2.3704,-2.3757,-2.3775,-2.3854,-2.3764,-2.3847,-2.385,-2.3838,-2.4014,-2.4042,-2.4178,-2.3955,-2.3958,-2.3961,0,-2.3355,-2.3407,-2.3543,-2.3582,-2.361,-2.3672,-2.373,-2.3785,-2.3827,-2.3832,-2.3872,-2.3858,-2.3938,-2.3874,-2.3985,-2.3923,-2.3957,-2.397,-2.3975,-2.3985,-2.3914,-2.4029,-2.4221,-2.4242,-2.399,-2.3988,-2.3986,0,-2.3476,-2.3579,-2.3674,-2.3699,-2.3747,-2.3791,-2.3814,-2.3852,-2.389,-2.394,-2.3965,-2.4024,-2.4056,-2.4102,-2.4104,-2.4057,-2.4216,-2.4152,-2.4223,-2.4223,-2.4259,-2.4257,-2.446,-2.4278,-2.4278,-2.4277,-2.4277,0,-2.3637,-2.3722,-2.3729,-2.3787,-2.3881,-2.3876,-2.3969,-2.3986,-2.402,-2.4081,-2.4058,-2.4116,-2.4114,-2.4173,-2.4175,-2.4266,-2.428,-2.4287,-2.4287,-2.4291,-2.429,-2.4314,-2.4305,-2.4283,-2.4282,-2.4281,-2.428,0,-2.3789,-2.3797,-2.3898,-2.3935,-2.3946,-2.4014,-2.4045,-2.41,-2.411,-2.4187,-2.4205,-2.4221,-2.4288,-2.4294,-2.4373,-2.4374,-2.4484,-2.4473,-2.4471,-2.4469,-2.454,-2.4534,-2.4767,-2.4798,-2.4594,-2.4596,-2.4598,0,-2.3892,-2.3957,-2.4,-2.4039,-2.4064,-2.4127,-2.4166,-2.4163,-2.4204,-2.4256,-2.4305,-2.437,-2.4422,-2.4531,-2.4549,-2.4608,-2.4599,-2.4677,-2.4608,-2.4609,-2.4602,-2.4599,-2.4605,-2.4691,-2.4693,-2.4695,-2.4696,0,-2.4075,-2.4075,-2.4132,-2.419,-2.4237,-2.4282,-2.4325,-2.4358,-2.436,-2.4407,-2.4476,-2.4516,-2.4595,-2.466,-2.4718,-2.474,-2.4719,-2.4717,-2.4737,-2.4742,-2.4739,-2.4742,-2.4509,-2.4713,-2.4711,-2.471,-2.4709,-2.4708,-2.4207,-2.4262,-2.4302,-2.4365,-2.4396,-2.4436,-2.449,-2.4506,-2.4563,-2.4628,-2.4622,-2.4698,-2.4736,-2.4812,-2.4838,-2.4897,-2.4871,-2.4899,-2.4907,-2.4914,-2.4922,-2.4727,-2.4907,-2.4907,-2.4906,-2.4906,-2.4906,0,-2.4389,-2.4412,-2.4471,-2.4531,-2.4581,-2.4555,-2.46,-2.4644,-2.4711,-2.4748,-2.48,-2.4878,-2.494,-2.4963,-2.5023,-2.5066,-2.5058,-2.5082,-2.508,-2.5085,-2.4941,-2.4919,-2.5088,-2.5088,-2.5088,-2.5088,-2.5088,-2.5088,-2.449,-2.4583,-2.4588,-2.4696,-2.4718,-2.4792,-2.482,-2.4856,-2.4886,-2.4975,-2.5026,-2.504,-2.5072,-2.5134,-2.519,-2.5194,-2.5218,-2.5247,-2.5248,-2.5114,-2.5095,-2.5078,-2.5057,-2.5252,-2.5252,-2.5387,-2.5388,-2.5389]},{"header":{"parameterUnit":"m.s-1","parameterCategory":1,"la1":30.2991,"la2":30.254,"lo1":-89.0895,"lo2":-89.0444,"dy":0.0017,"dx":0.0017,"nx":28,"ny":28,"refTime":"2024-11-29T03:00:00:Z","depth":0,"parameterNumber":3,"parameterNumberName":"V-component_of_WINDS"},"data":[0,0,0,0,0,0,0,0,0,0,0,0,0,0,0,0,0,0,0,0,0,0,0,0,0,0,0,0,0,0,0,0,0,0,0,0,0,0,0,0,0,0,0,0,0,0,0,0,0,0,0,0,0,0,0,0,0,0,-7.04,-7.0401,0,-7.0488,-7.0489,-7.049,-7.0394,-7.0391,-7.0387,-7.0384,-7.0469,-7.0474,-7.048,0,0,0,0,0,0,0,0,0,0,0,0,0,-7.0144,-7.0149,-7.04,-7.0401,-7.0402,-7.0487,-7.0489,-7.049,-7.0395,-7.0391,-7.0386,-7.0382,-7.0467,-7.0473,-7.048,0,0,0,0,0,0,0,0,0,0,0,0,0,-7.0246,-7.0151,-7.04,-7.0365,-7.0363,-7.0487,-7.0489,-7.049,-7.0396,-7.0391,-7.0385,-7.038,-7.0464,-7.0473,-7.0481,-7.0642,0,0,-7.0507,-7.0511,0,0,0,0,0,0,0,0,-7.024,-7.0255,-7.0369,-7.0368,-7.0365,-7.0425,-7.0429,-7.0541,-7.0397,-7.0383,-7.0384,-7.0377,-7.0458,-7.0467,-7.0495,-7.0646,-7.065,-7.0508,-7.0513,-7.0516,-7.0519,0,0,0,0,0,0,0,-7.0233,-7.0251,-7.0434,-7.0371,-7.0369,-7.0343,-7.0352,-7.045,-7.045,-7.0384,-7.0377,-7.0389,-7.0456,-7.0487,-7.0496,-7.0651,-7.0507,-7.0515,-7.052,-7.0523,-7.0937,-7.0942,0,0,0,0,0,0,-7.0231,-7.0246,-7.0431,-7.0437,-7.0288,-7.0352,-7.0362,-7.0411,-7.0449,-7.0449,-7.0394,-7.0385,-7.0475,-7.0486,-7.0499,-7.0689,-7.0516,-7.0524,-7.0529,-7.0931,-7.0938,-7.0944,0,0,0,0,0,0,-7.0226,-7.0248,-7.0428,-7.034,-7.036,-7.0363,-7.0419,-7.0416,-7.0447,-7.0456,-7.0455,-7.0426,-7.0471,-7.0487,-7.0607,-7.0691,-7.0528,-7.0536,-7.0924,-7.0933,-7.0941,-7.1072,0,0,0,0,0,0,-7.0219,-7.0247,-7.031,-7.0342,-7.0366,-7.0537,-7.0424,-7.0421,-7.0462,-7.0451,-7.0486,-7.0487,-7.0468,-7.0595,-7.0616,-7.0699,-7.0542,-7.0916,-7.0928,-7.0938,-7.106,-7.1084,-7.1104,0,0,0,0,0,-7.021,-7.0342,-7.0313,-7.0336,-7.0445,-7.0542,-7.0556,-7.0533,-7.0469,-7.0531,-7.0537,-7.0485,-7.0678,-7.0608,-7.063,-7.0718,-7.0911,-7.0925,-7.0938,-7.105,-7.1079,-7.1104,0,0,0,0,0,0,-7.0318,-7.0346,-7.0314,-7.0461,-7.05,-7.0526,-7.0604,-7.0565,-7.0622,-7.0609,-7.0577,-7.0586,-7.0714,-7.0727,-7.0649,-7.0875,-7.0784,-7.0802,-7.0862,-7.0889,-7.0911,-7.0905,-7.0549,0,0,0,0,0,-7.036,-7.0439,-7.0457,-7.0585,-7.0606,-7.0602,-7.0644,-7.0623,-7.0662,-7.0677,-7.0692,-7.073,-7.0798,-7.0845,-7.0909,-7.1061,-7.1067,-7.1132,-7.1154,-7.1173,-7.1189,-7.1269,-7.1298,-7.0988,-7.0988,-7.0988,0,0,-7.0445,-7.047,-7.0521,-7.0607,-7.0635,-7.0716,-7.0617,-7.0706,-7.0765,-7.069,-7.0805,-7.0817,-7.0857,-7.0994,-7.1055,-7.101,-7.1276,-7.119,-7.1204,-7.121,-7.1286,-7.1315,-7.1342,-7.0997,-7.0996,-7.0994,0,0,-7.0642,-7.067,-7.0779,-7.0809,-7.0853,-7.0849,-7.0875,-7.0907,-7.0913,-7.1028,-7.0973,-7.1041,-7.1161,-7.1192,-7.1223,-7.1431,-7.1385,-7.1452,-7.1568,-7.1647,-7.1672,-7.1693,-7.1767,-7.1794,-7.1468,-7.1469,-7.1469,0,-7.0742,-7.0864,-7.0839,-7.0933,-7.0972,-7.0909,-7.1018,-7.1048,-7.111,-7.1137,-7.1086,-7.1234,-7.1257,-7.14,-7.145,-7.1478,-7.1505,-7.1448,-7.1671,-7.1692,-7.1711,-7.1781,-7.1809,-7.1476,-7.1476,-7.1475,-7.1474,0,-7.0985,-7.107,-7.1152,-7.1216,-7.1263,-7.1364,-7.1353,-7.1404,-7.1379,-7.138,-7.1497,-7.1521,-7.1589,-7.1621,-7.1597,-7.176,-7.1731,-7.1676,-7.1583,-7.1749,-7.1814,-7.1841,-7.1488,-7.1485,-7.1483,-7.1481,0,0,-7.1253,-7.1302,-7.1332,-7.136,-7.1403,-7.1468,-7.1565,-7.1632,-7.1676,-7.1721,-7.18,-7.1903,-7.1852,-7.1887,-7.1866,-7.1935,-7.2097,-7.1871,-7.1871,-7.1912,-7.2277,-7.2319,-7.235,-7.2067,-7.2072,-7.2076,-7.2274,0,-7.1451,-7.1622,-7.1602,-7.1765,-7.1842,-7.1783,-7.1867,-7.1902,-7.1905,-7.1969,-7.1971,-7.2044,-7.1972,-7.1993,-7.2059,-7.2064,-7.217,-7.2049,-7.2139,-7.2143,-7.2131,-7.2384,-7.2428,-7.2614,-7.2299,-7.2303,-7.2306,0,-7.1705,-7.1761,-7.1932,-7.1963,-7.1994,-7.2071,-7.2131,-7.2193,-7.2231,-7.2228,-7.2267,-7.2233,-7.2328,-7.2235,-7.2364,-7.2282,-7.2318,-7.2325,-7.2332,-7.2339,-7.2235,-7.2398,-7.2673,-7.2701,-7.2346,-7.2343,-7.234,0,-7.1884,-7.2001,-7.2118,-7.2143,-7.2183,-7.2238,-7.2256,-7.2288,-7.233,-7.2381,-7.2407,-7.2469,-7.2502,-7.2549,-7.2532,-7.2465,-7.2665,-7.257,-7.2664,-7.2665,-7.2709,-7.2706,-7.2993,-7.2732,-7.2732,-7.2731,-7.2731,0,-7.2107,-7.2214,-7.2199,-7.2271,-7.2388,-7.2362,-7.2478,-7.2489,-7.2518,-7.2589,-7.2541,-7.2609,-7.2582,-7.2647,-7.2634,-7.2743,-7.2758,-7.2757,-7.2752,-7.2762,-7.2762,-7.2785,-7.2771,-7.2739,-7.2737,-7.2736,-7.2734,0,-7.2326,-7.2321,-7.2444,-7.2472,-7.2481,-7.2566,-7.2588,-7.2654,-7.2653,-7.2744,-7.2764,-7.2762,-7.2837,-7.2824,-7.2906,-7.2897,-7.3033,-7.3012,-7.3021,-7.3016,-7.3111,-7.3102,-7.3422,-7.3463,-7.3176,-7.3179,-7.3181,0,-7.2469,-7.255,-7.2586,-7.2632,-7.2655,-7.2728,-7.2771,-7.2748,-7.2794,-7.2842,-7.2903,-7.2973,-7.3028,-7.3149,-7.3154,-7.3216,-7.3196,-7.3304,-7.3205,-7.3211,-7.3197,-7.3193,-7.32,-7.3323,-7.3327,-7.3329,-7.3332,0,-7.2723,-7.2717,-7.2781,-7.2844,-7.2897,-7.2945,-7.2988,-7.3027,-7.3008,-7.3062,-7.3138,-7.3181,-7.3265,-7.3335,-7.3393,-7.3409,-7.3367,-7.3363,-7.3388,-7.3398,-7.34,-7.34,-7.3074,-7.3355,-7.3353,-7.3351,-7.335,-7.3349,-7.2909,-7.2978,-7.3014,-7.3087,-7.3117,-7.3158,-7.3222,-7.323,-7.3294,-7.3362,-7.3343,-7.343,-7.3463,-7.3536,-7.3559,-7.3625,-7.3585,-7.3621,-7.363,-7.364,-7.3651,-7.339,-7.3635,-7.3635,-7.3634,-7.3633,-7.3633,0,-7.316,-7.318,-7.3248,-7.331,-7.3367,-7.3324,-7.3369,-7.3419,-7.3496,-7.3532,-7.3587,-7.3674,-7.3742,-7.3752,-7.3815,-7.3866,-7.3848,-7.3883,-7.3879,-7.3883,-7.3684,-7.3656,-7.3896,-7.3896,-7.3896,-7.3896,-7.3896,-7.3896,-7.3297,-7.3412,-7.3409,-7.3537,-7.3555,-7.3641,-7.3671,-7.3708,-7.3736,-7.3836,-7.3893,-7.3899,-7.3924,-7.3988,-7.4047,-7.4048,-7.4074,-7.4116,-7.411,-7.3923,-7.3897,-7.3872,-7.3846,-7.4122,-7.4123,-7.4304,-7.4305,-7.4307]}]]